{"data":{"norad_id":63451,"intl_designator":"2025-069U","name":"STARLINK-33740","alt_names":[],"object_type":"PAYLOAD","status":"ACTIVE","operator":null,"country":"US","launch_date":"2025-04-04","launch_site_code":"AFWTR","launch_vehicle":null,"mission":null,"orbit_class":"UNKNOWN","rcs_meters":null,"size_class":null,"mass_kg":null,"dimensions":null,"purposes":["comms"],"wikipedia_slug":null,"has_3d_model":false,"image_url":null,"decayed_at":null,"tle_current":{"epoch":"2026-09-20T10:04:18.763968Z","epoch_age_seconds":162393,"freshness":"FRESH","line1":"1 63451U 25069U   26263.41966162  .00010993  00000+0  33596-3 0  9995","line2":"2 63451  53.1587 308.3787 0001045  73.1568 286.9549 15.34403367 83242","mean_motion":15.34403367,"eccentricity":0.0001045,"inclination_deg":53.1587,"raan_deg":308.3787,"arg_perigee_deg":73.1568,"mean_anomaly_deg":286.9549,"bstar":0.00033596,"rev_number":8324,"period_min":93.847552147609,"perigee_km":461.97836603252,"apogee_km":463.40809955117,"semimajor_km":6840.8302327918,"source":"CELESTRAK","updated_at":"2026-09-21T09:00:35.005149Z"}}}